| time (UTC) | temp F | wind direction | speed MPH | gust MPH | rain 1hr in | rain 24hr in | rain mn in | humidity % | barometer mb |
| 20260505021619 | 56 | 152 | 0.0 | 2.0 | 0.00 | 0.00 | 0.00 | 56 | 1006.3 |
| 20260505020621 | 60 | 150 | 0.0 | 2.0 | 0.00 | 0.00 | 0.00 | 46 | 1006.1 |
| 20260505015621 | 63 | 24 | 0.0 | 0.0 | 0.00 | 0.00 | 0.00 | 42 | 1005.9 |
| 20260505014655 | 63 | 24 | 0.0 | 0.0 | 0.00 | 0.00 | 0.00 | 39 | 1005.9 |
| 20260505013633 | 63 | 24 | 0.0 | 0.0 | 0.00 | 0.00 | 0.00 | 45 | 1005.8 |
| 20260505012633 | 62 | 9 | 0.0 | 0.0 | 0.00 | 0.00 | 0.00 | 39 | 1005.8 |
| 20260505011617 | 62 | 342 | 0.0 | 0.0 | 0.00 | 0.00 | 0.00 | 34 | 1005.9 |
| 20260505010616 | 61 | 348 | 0.0 | 7.0 | 0.00 | 0.00 | 0.00 | 34 | 1006.1 |
| 20260505005617 | 61 | 303 | 1.0 | 10.0 | 0.00 | 0.00 | 0.00 | 32 | 1006.0 |
| 20260505004635 | 61 | 318 | 4.0 | 11.0 | 0.00 | 0.00 | 0.00 | 33 | 1006.1 |
| 20260505003633 | 61 | 272 | 4.0 | 26.0 | 0.00 | 0.00 | 0.00 | 36 | 1006.1 |
| 20260505002633 | 62 | 271 | 9.0 | 22.0 | 0.00 | 0.00 | 0.00 | 34 | 1006.1 |
| 20260505001632 | 64 | 311 | 0.0 | 1.0 | 0.00 | 0.00 | 0.00 | 42 | 1005.9 |
| 20260505000625 | 63 | 25 | 0.0 | 3.0 | 0.00 | 0.00 | 0.00 | 40 | 1005.9 |
| 20260504235620 | 63 | 111 | 0.0 | 0.0 | 0.00 | 0.00 | 0.00 | 36 | 1005.8 |
| 20260504234620 | 60 | 112 | 0.0 | 0.0 | 0.00 | 0.00 | 0.00 | 41 | 1005.8 |
| 20260504233621 | 60 | 111 | 0.0 | 0.0 | 0.00 | 0.00 | 0.00 | 53 | 1005.6 |
| 20260504232641 | 60 | 110 | 0.0 | 0.0 | 0.00 | 0.00 | 0.00 | 55 | 1005.7 |
| 20260504231618 | 61 | 112 | 0.0 | 0.0 | 0.00 | 0.00 | 0.00 | 27 | 1005.5 |
| 20260504230656 | 61 | 121 | 0.0 | 0.0 | 0.00 | 0.00 | 0.00 | 29 | 1005.5 |
| 20260504225631 | 61 | 138 | 0.0 | 0.0 | 0.00 | 0.00 | 0.00 | 36 | 1005.7 |
| 20260504224631 | 61 | 131 | 0.0 | 0.0 | 0.00 | 0.00 | 0.00 | 38 | 1005.9 |
| 20260504223632 | 61 | 115 | 0.0 | 0.0 | 0.00 | 0.00 | 0.00 | 51 | 1005.8 |
| 20260504222630 | 62 | 69 | 0.0 | 0.0 | 0.00 | 0.00 | 0.00 | 44 | 1006.0 |
| 20260504221629 | 63 | 69 | 0.0 | 0.0 | 0.00 | 0.00 | 0.00 | 36 | 1006.1 |
| 20260504220631 | 62 | 70 | 0.0 | 0.0 | 0.00 | 0.00 | 0.00 | 43 | 1006.3 |
| 20260504215631 | 60 | 69 | 0.0 | 0.0 | 0.00 | 0.00 | 0.00 | 43 | 1006.5 |
| 20260504214635 | 59 | 69 | 0.0 | 0.0 | 0.00 | 0.00 | 0.00 | 49 | 1006.7 |
| 20260504213634 | 58 | 69 | 0.0 | 0.0 | 0.00 | 0.00 | 0.00 | 60 | 1006.8 |
| 20260504212653 | 58 | 52 | 0.0 | 0.0 | 0.00 | 0.00 | 0.00 | 58 | 1007.0 |
| 20260504211631 | 58 | 62 | 0.0 | 2.0 | 0.00 | 0.00 | 0.00 | 51 | 1006.9 |
| 20260504210629 | 58 | 64 | 0.0 | 2.0 | 0.00 | 0.00 | 0.00 | 51 | 1007.1 |
| 20260504205633 | 60 | 94 | 0.0 | 1.0 | 0.00 | 0.00 | 0.00 | 43 | 1007.2 |
| 20260504204634 | 60 | 109 | 0.0 | 1.0 | 0.00 | 0.00 | 0.00 | 36 | 1007.3 |
| 20260504203654 | 59 | 111 | 0.0 | 1.0 | 0.00 | 0.00 | 0.00 | 41 | 1007.4 |
| 20260504202632 | 59 | 115 | 2.0 | 6.0 | 0.00 | 0.00 | 0.00 | 42 | 1007.5 |
| 20260504201631 | 60 | 125 | 0.0 | 1.0 | 0.00 | 0.00 | 0.00 | 37 | 1007.6 |
| 20260504200633 | 60 | 178 | 0.0 | 5.0 | 0.00 | 0.00 | 0.00 | 43 | 1007.8 |
| 20260504195634 | 61 | 178 | 0.0 | 4.0 | 0.00 | 0.00 | 0.00 | 35 | 1007.8 |
| 20260504194634 | 58 | 147 | 0.0 | 0.0 | 0.00 | 0.00 | 0.00 | 43 | 1008.0 |
| 20260504193633 | 58 | 327 | 0.0 | 0.0 | 0.00 | 0.00 | 0.00 | 44 | 1008.0 |
| 20260504192615 | 58 | 328 | 0.0 | 0.0 | 0.00 | 0.00 | 0.00 | 47 | 1008.1 |
| 20260504191615 | 61 | 94 | 0.0 | 1.0 | 0.00 | 0.00 | 0.00 | 33 | 1008.1 |
| 20260504190616 | 62 | 105 | 0.0 | 9.0 | 0.00 | 0.00 | 0.00 | 30 | 1008.2 |
| 20260504185618 | 62 | 97 | 5.0 | 15.0 | 0.00 | 0.00 | 0.00 | 27 | 1008.3 |
| 20260504184617 | 62 | 113 | 1.0 | 14.0 | 0.00 | 0.00 | 0.00 | 29 | 1008.7 |
| 20260504183621 | 59 | 294 | 4.0 | 30.0 | 0.00 | 0.00 | 0.00 | 33 | 1009.2 |
| 20260504182621 | 54 | 262 | 0.0 | 3.0 | 0.00 | 0.00 | 0.00 | 51 | 1009.0 |
| 20260504181620 | 53 | 63 | 0.0 | 0.0 | 0.00 | 0.00 | 0.00 | 62 | 1009.0 |
| 20260504180633 | 53 | 67 | 0.0 | 0.0 | 0.00 | 0.00 | 0.00 | 62 | 1009.1 |
| 20260504175633 | 53 | 63 | 0.0 | 0.0 | 0.00 | 0.00 | 0.00 | 63 | 1009.2 |
| 20260504174616 | 52 | 67 | 0.0 | 0.0 | 0.00 | 0.00 | 0.00 | 62 | 1009.2 |
| 20260504173635 | 51 | 65 | 0.0 | 0.0 | 0.00 | 0.00 | 0.00 | 63 | 1009.2 |
| 20260504172615 | 51 | 62 | 0.0 | 0.0 | 0.00 | 0.00 | 0.00 | 63 | 1009.4 |
| 20260504171655 | 51 | 57 | 0.0 | 0.0 | 0.00 | 0.00 | 0.00 | 66 | 1009.4 |
| 20260504170631 | 51 | 55 | 0.0 | 0.0 | 0.00 | 0.00 | 0.00 | 64 | 1009.4 |
| 20260504150632 | 50 | 42 | 0.0 | 0.0 | 0.00 | 0.00 | 0.00 | 66 | 1010.0 |
| 20260504140630 | 48 | 203 | 0.0 | 0.0 | 0.00 | 0.00 | 0.00 | 64 | 1010.4 |
| 20260504130627 | 40 | 205 | 0.0 | 0.0 | 0.00 | 0.00 | 0.00 | 70 | 1010.3 |
| 20260504110634 | 39 | 262 | 0.0 | 0.0 | 0.00 | 0.00 | 0.00 | 66 | 1010.1 |
| 20260504081629 | 45 | 207 | 0.0 | 0.0 | 0.00 | 0.00 | 0.00 | 46 | 1010.5 |
| 20260504080630 | 45 | 207 | 0.0 | 0.0 | 0.00 | 0.00 | 0.00 | 52 | 1010.5 |
| 20260504050629 | 49 | 145 | 0.0 | 0.0 | 0.00 | 0.00 | 0.00 | 47 | 1011.2 |
| 20260504045628 | 50 | 145 | 0.0 | 0.0 | 0.00 | 0.00 | 0.00 | 53 | 1011.3 |
| 20260504044628 | 51 | 145 | 0.0 | 0.0 | 0.00 | 0.00 | 0.00 | 51 | 1011.3 |
| 20260504043631 | 51 | 119 | 0.0 | 0.0 | 0.00 | 0.00 | 0.00 | 54 | 1011.3 |
| 20260504042631 | 51 | 238 | 0.0 | 0.0 | 0.00 | 0.00 | 0.00 | 38 | 1011.3 |
| 20260504041628 | 52 | 274 | 0.0 | 0.0 | 0.00 | 0.00 | 0.00 | 35 | 1011.3 |
| 20260504040647 | 51 | 284 | 0.0 | 0.0 | 0.00 | 0.00 | 0.00 | 35 | 1011.4 |
| 20260504035628 | 52 | 279 | 0.0 | 0.0 | 0.00 | 0.00 | 0.00 | 36 | 1011.3 |
| 20260504034649 | 52 | 273 | 0.0 | 0.0 | 0.00 | 0.00 | 0.00 | 36 | 1011.4 |
| 20260504033626 | 52 | 278 | 0.0 | 0.0 | 0.00 | 0.00 | 0.00 | 38 | 1011.4 |
| 20260504032624 | 52 | 275 | 0.0 | 0.0 | 0.00 | 0.00 | 0.00 | 37 | 1011.3 |
| 20260504031641 | 53 | 264 | 0.0 | 0.0 | 0.00 | 0.00 | 0.00 | 36 | 1011.2 |
| 20260504030617 | 56 | 246 | 0.0 | 0.0 | 0.00 | 0.00 | 0.00 | 35 | 1011.3 |
| 20260504025622 | 57 | 297 | 0.0 | 0.0 | 0.00 | 0.00 | 0.00 | 43 | 1011.2 |
| 20260504024618 | 58 | 242 | 0.0 | 0.0 | 0.00 | 0.00 | 0.00 | 43 | 1011.3 |
| 20260504023637 | 59 | 241 | 0.0 | 0.0 | 0.00 | 0.00 | 0.00 | 44 | 1011.1 |
| 20260504022634 | 58 | 242 | 0.0 | 0.0 | 0.00 | 0.00 | 0.00 | 35 | 1011.1 |